This demonstration page uses our WeatherBlox Daily Observations layout. Learn more.

Left ArrowRight Arrow

Hourly Observations for December 4, 2022

Temp ( °F °C ) Dew Point ( °F °C ) Humidity (%) Winds ( mph kmh ) Pressure ( in mb ) Visibility ( mi km ) Precip ( " mm )
12:54 am 00:54 Clear 27 -2.8 12 -11.1 53 53 SSW 6 9 30.31 1027 10 16 0.00 0.00
1:54 am 01:54 Clear 25 -3.9 11 -11.7 54 54 S 5 7 30.29 1026 10 16 0.00 0.00
2:54 am 02:54 Clear 21 -6.1 11 -11.7 64 64 S 3 6 30.29 1026 10 16 0.00 0.00
3:54 am 03:54 Clear 23 -5 11 -11.7 59 59 SSW 3 6 30.29 1026 10 16 0.00 0.00
4:54 am 04:54 Clear 21 -6.1 10 -12.2 62 62 S 3 6 30.29 1026 10 16 0.00 0.00
5:54 am 05:54 Clear 17 -8.3 9 -12.8 70 70 Calm 30.28 1025 10 16 0.00 0.00
6:54 am 06:54 Clear 15 -9.4 8 -13.3 73 73 Calm 30.28 1025 10 16 0.00 0.00
7:54 am 07:54 Sunny 18 -7.8 10 -12.2 71 71 Calm 30.27 1025 10 16 0.00 0.00
8:54 am 08:54 Sunny 21 -6.1 14 -10 74 74 SSE 5 7 30.26 1025 10 16 0.00 0.00
9:54 am 09:54 Sunny 29 -1.7 15 -9.4 56 56 SSW 3 6 30.25 1025 10 16 0.00 0.00
10:54 am 10:54 Sunny 36 2.2 16 -8.9 44 44 WSW 3 6 30.22 1023 10 16 0.00 0.00
11:54 am 11:54 Sunny 41 5 16 -8.9 36 36 SSW 7 11 30.16 1021 10 16 0.00 0.00
12:54 pm 12:54 Sunny 46 7.8 16 -8.9 29 29 SW 8 13 30.13 1020 10 16 0.00 0.00
1:54 pm 13:54 Sunny 49 9.4 16 -8.9 26 26 SSW 8 13 30.09 1019 10 16 0.00 0.00
2:54 pm 14:54 Sunny 51 10.6 16 -8.9 24 24 SSW 7 11 30.06 1018 10 16 0.00 0.00
3:54 pm 15:54 Sunny 49 9.4 17 -8.3 28 28 S 9 15 30.04 1017 10 16 0.00 0.00
4:54 pm 16:54 Sunny 36 2.2 13 -10.6 38 38 S 9 15 30.03 1017 10 16 0.00 0.00
5:54 pm 17:54 Clear 34 1.1 14 -10 43 43 S 10 17 30.02 1017 10 16 0.00 0.00
6:54 pm 18:54 Clear 30 -1.1 14 -10 51 51 S 7 11 30.01 1016 10 16 0.00 0.00
7:54 pm 19:54 Clear 33 0.6 15 -9.4 47 47 S 3 6 29.99 1016 10 16 0.00 0.00
8:54 pm 20:54 Clear 31 -0.6 16 -8.9 53 53 S 5 7 29.97 1015 10 16 0.00 0.00
9:54 pm 21:54 Clear 30 -1.1 16 -8.9 55 55 S 7 11 29.93 1014 10 16 0.00 0.00
10:54 pm 22:54 Clear 31 -0.6 17 -8.3 56 56 S 6 9 29.91 1013 10 16 0.00 0.00
11:54 pm 23:54 Clear 31 -0.6 18 -7.8 58 58 S 6 9 29.89 1012 10 16 0.00 0.00

Powered by AerisWeather